Regional Weather Roundup
Issued by NWS

Home | Current Version | Previous Version | Graphics & Text | Print | Product List | Glossary On
Versions: 1 2 3 4 5 6 7 8 9 10 11 12 13 14 15 16 17 18 19 20 21 22 23 24 25 26 27 28 29 30 31 32 33 34 35 36 37 38 39 40 41 42 43 44 45 46 47 48 49 50
049
ASUS45 KTFX 270410
RWRMT
MONTANA REGIONAL WEATHER ROUNDUP
NATIONAL WEATHER SERVICE GREAT FALLS MT
1000 PM MDT FRI AUG 26 2016

NOTE: "FAIR" INDICATES FEW OR NO CLOUDS BELOW 12000 FEET WITH NO
SIGNIFICANT WEATHER AND/OR OBSTRUCTIONS TO VISIBILITY.

MTZ001>007-043-270500-
WEST OF THE DIVIDE

CITY           SKY/WX    TMP DP  RH WIND       PRES   REMARKS
KALISPELL      MOCLDY    59  43  55 VRB6      29.89R
MISSOULA       PTCLDY    62  39  42 MISG      29.94R
BUTTE          CLEAR     54  30  40 S8        30.06R
MULLAN PASS    MOCLDY    58  30  34 VRB5      30.06S
DEER LODGE       N/A     55  34  44 CALM      30.04R
EUREKA           N/A     72  39  30 E7        29.85S
HAMILTON         N/A     55  43  62 CALM      29.96R
LIBBY            N/A     66  37  34 S3        29.87S
PLAINS           N/A     64  42  44 N1        29.91R
RONAN            N/A     58  47  66 CALM      29.97S
THOMPSON FALLS   N/A     63  39  41 CALM      29.94R
$$

MTZ008-052>055-270500-
SOUTHWEST MONTANA

CITY           SKY/WX    TMP DP  RH WIND       PRES   REMARKS
BOZEMAN        CLEAR     58  37  45 S10       30.00R
DILLON         CLEAR     56  27  32 E3        30.01R
W YELLOWSTONE  CLEAR     55  28  35 SW6       30.11R
ENNIS          CLEAR     52  28  40 S5        30.08R
THREE FORKS      N/A     53   9  17 CALM      29.99R
$$

MTZ009-010-012-014-046-048-049-054-270500-
EAST SLOPES AND CENTRAL MONTANA

CITY           SKY/WX    TMP DP  RH WIND       PRES   REMARKS
CUT BANK       PTCLDY    59  39  47 SW6       29.92S
GREAT FALLS    CLEAR     59  38  45 SE8       29.95R
HELENA         CLEAR     63  34  33 SW6       29.96R
CHOTEAU          N/A     61  41  48 SW5       29.96S
CONRAD           N/A     51  42  71 S3        29.96F
$$

MTZ011-013-016-021-045-047-050-051-270500-
NORTH CENTRAL MONTANA

CITY           SKY/WX    TMP DP  RH WIND       PRES   REMARKS
HAVRE          CLEAR     54  44  69 S6        29.91S
LEWISTOWN      CLOUDY    57  44  62 E5        30.00S
N BAR RANCH      N/A     46  41  81 NW5       30.04S
CHINOOK          N/A     57  46  67 E3        29.92S
$$

MTZ017>020-022>027-061-062-270500-
NORTHEAST MONTANA

CITY           SKY/WX    TMP DP  RH WIND       PRES   REMARKS
GLASGOW        CLEAR     56  45  66 VRB5      29.94S
JORDAN           N/A     52  47  83 CALM      29.97S
SIDNEY         CLEAR     55  44  66 CALM      29.96S
WOLF POINT     PTCLDY    53  46  77 SW3       29.95S
POPLAR           N/A     57  46  67 NE3       29.94F
SCOBEY           N/A     49  39  68 CALM      29.94F
$$

MTZ028>42-056>058-270500-
SOUTHCENTRAL AND SOUTHEAST MONTANA

CITY           SKY/WX    TMP DP  RH WIND       PRES   REMARKS
BAKER          CLOUDY    58  48  69 SW6       30.01F
BILLINGS       PTCLDY    60  41  49 NE8       29.99R
LIVINGSTON     CLEAR     59  38  45 SE10      30.01R
MILES CITY     PTCLDY    61  42  49 NE7       29.97R
EKALAKA          N/A     55  46  71 SE9       29.99F
FORSYTH          N/A     61  43  51 CALM      29.97S
LAUREL           N/A     60  37  42 N5        29.98R
ROUNDUP          N/A     60  40  47 E1        29.92R
$$

REGIONAL REPORTS...DAKOTAS

CITY           SKY/WX    TMP DP  RH WIND       PRES   REMARKS
WILLISTON      CLOUDY    63  46  54 S5        29.95S
MINOT          CLOUDY    64  52  64 SW8G24    29.94R
DICKINSON      PTCLDY    55  49  80 W8        29.98R
CROSBY           N/A     50  50 100 SW6       29.94S
WATFORD CITY   CLOUDY    57  52  82 W3        29.96S
BISMARCK       CLEAR     57  53  86 S7        30.01S
GRAND FORKS    CLEAR     54  50  86 S5        30.00F
FARGO          CLOUDY    63  53  70 S3        30.04F
BUFFALO SD       N/A     57  50  77 NE3       29.97S
RAPID CITY     CLOUDY    57  55  93 CALM      30.04F
$$

REGIONAL REPORTS...WYOMING/IDAHO/WASHINGTON

CITY           SKY/WX    TMP DP  RH WIND       PRES   REMARKS
GILLETTE       CLOUDY    54  48  80 NE7       30.07R
SHERIDAN       MOCLDY    53  44  71 SW6       30.03S
BUFFALO WY     CLOUDY    55  39  54 SW8       30.09S
CODY           CLOUDY    52  43  71 S6        30.05S
YELLOWSTONE LA   N/A     43  32  65 CALM      30.20R
IDAHO FALLS    CLOUDY    65  31  28 S12       30.02R
SALMON         CLOUDY    59  34  38 CALM      29.95R
BOISE          CLEAR     74  35  24 SW3       29.92R
SPOKANE        MOCLDY    77  36  22 SW6       29.86R
$$

REGIONAL REPORTS...ALBERTA

CITY           SKY/WX    TMP DP  RH WIND       PRES   REMARKS
EDMONTON       MOCLDY    64  50  59 S6        29.74S
CALGARY        MOCLDY    61  46  59 S5        29.80F
LETHBRIDGE     PTCLDY    55  45  67 S15       29.83F
MEDICINE HAT   CLEAR     55  48  76 SE7       29.85F
WATERTON GATE    N/A     55  41  58 S2          N/A
MILK RIVER       N/A     50  41  71 SE2         N/A
ONEFOUR          N/A     54  41  62 E12         N/A
$$

REGIONAL REPORTS...SASKATCHEWAN

CITY           SKY/WX    TMP DP  RH WIND       PRES   REMARKS
SWIFT CURRENT  CLEAR     48  45  87 SW9       29.91S
REGINA         PTCLDY    52  50  93 W6        29.90S
SASKATOON      CLEAR     55  52  88 S3        29.88S
VAL MARIE        N/A     45  41  87 CALM        N/A
ROCKGLEN         N/A     50  46  87 SW5         N/A
ASSINIBOIA       N/A     57  52  82 S5          N/A
$$




USA.gov is the U.S. government's official web portal to all federal, state and local government web resources and services.